Location: Caltech
(34.1382°N, 118.1253°W)
Time: 04:59:32
(UTC-07:00)

Lacrosse 5 - Visible Passes

Search period start: 29 August 2014 00:00
Search period end: 08 September 2014 00:00
Orbit: 710 x 718 km, 57.0° (Epoch: 27 July)

Date Brightness Start Highest point End Pass type
(mag) Time Alt. Az. Time Alt. Az. Time Alt. Az.
29 Aug 4.7 02:30:52 12° NE 02:30:52 12° NE 02:31:20 10° NE visible
29 Aug 3.2 04:09:58 27° NNW 04:09:58 27° NNW 04:13:50 10° NNE visible
30 Aug 3.8 03:17:16 25° NNE 03:17:16 25° NNE 03:19:28 10° NNE visible
30 Aug 4.2 04:57:23 10° NW 04:58:30 11° NNW 04:59:37 10° NNW visible
31 Aug 4.8 02:24:31 12° NE 02:24:31 12° NE 02:24:49 10° NE visible
31 Aug 3.9 04:03:36 17° NNW 04:03:36 17° NNW 04:06:30 10° N visible
01 Sep 4.2 03:10:50 18° N 03:10:50 18° N 03:12:26 10° NNE visible
02 Sep 4.3 03:57:07 11° NNW 03:57:07 11° NNW 03:58:35 10° N visible
03 Sep 4.5 03:04:18 13° N 03:04:18 13° N 03:05:10 10° N visible
